Weather History for Metropolis, IL

Change the Weather History Date:

Monday, April 21, 2014

  Actual Average (KPAH) Record (KPAH)
Temperature  
Mean Temperature 64 °F 60 °F  
Max Temperature 75 °F 71 °F 90 °F (1987)
Min Temperature 53 °F 48 °F 30 °F (1943)
Degree Days  
Heating Degree Days 1 7  
Month to date heating degree days 197  
Since 1 July heating degree days 4016  
Cooling Degree Days 0 1  
Month to date cooling degree days 21  
Year to date cooling degree days 28  
Growing Degree Days 14 (Base 50)    
Moisture  
Dew Point 51 °F    
Average Humidity 63    
Maximum Humidity 84    
Minimum Humidity 34    
Precipitation  
Precipitation 0.00 in 0.18 in 2.13 in (1951)
Month to date precipitation 3.21  
Year to date precipitation 14.73  
Snow  
Snow 0.00 in 0.00 in 0.00 in (2002)
Month to date snowfall 0.0  
Since 1 July snowfall 9.1  
Snow Depth -    
Sea Level Pressure  
Sea Level Pressure 30.00 in    
Wind  
Wind Speed 2 mph (SW)    
Max Wind Speed 10 mph    
Max Gust Speed 17 mph    
Visibility 10 miles    
Events Rain    
T = Trace of Precipitation, MM = Missing Value Source: NWS Daily Summary

Daily Weather History Graph

Daily Weather History Graph

Search for Another Location

Airport:

Trip Planner

Search our weather history database for the weather conditions in past years. The results will help you decide how hot, cold, wet, or windy it might be!

Date:

Astronomy

Apr. 21, 2014 Rise Set
Actual Time 6:12 AM CDT 7:35 PM CDT
Civil Twilight 5:45 AM CDT 8:02 PM CDT
Nautical Twilight 5:12 AM CDT 8:35 PM CDT
Astronomical Twilight 4:38 AM CDT 9:09 PM CDT
Moon 1:03 AM CDT (4/21) 11:40 AM CDT (4/21)
Length of Visible Light 14h 17m
Length of Day
13h 22m
Waning Gibbous, 57% of the Moon is Illuminated
Apr 21
Waning Gibbous
Apr 22
Last Quarter
Apr 29
New
May 6
First Quarter
May 14
Full

Hourly Weather History & Observations

Time (CDT) Temp. Dew Point Humidity Pressure Visibility Wind Dir Wind Speed Gust Speed Precip Events Conditions
12:15 AM 57.2 °F 48.2 °F 72% 30.08 in 10.0 mi Calm Calm - N/A   Clear
12:35 AM 56.3 °F 48.6 °F 75% 30.08 in 10.0 mi Calm Calm - N/A   Clear
12:55 AM 55.2 °F 48.2 °F 77% 30.08 in 10.0 mi Calm Calm - N/A   Clear
1:15 AM 55.9 °F 48.6 °F 76% 30.07 in 10.0 mi Calm Calm - N/A   Clear
1:35 AM 55.6 °F 49.1 °F 79% 30.07 in 10.0 mi Calm Calm - N/A   Clear
1:55 AM 55.6 °F 49.3 °F 79% 30.06 in 10.0 mi Calm Calm - N/A   Clear
2:15 AM 54.9 °F 49.1 °F 81% 30.06 in 10.0 mi Calm Calm - N/A   Clear
2:35 AM 54.7 °F 49.1 °F 81% 30.06 in 10.0 mi Calm Calm - N/A   Clear
2:55 AM 53.6 °F 48.7 °F 84% 30.06 in 10.0 mi Calm Calm - N/A   Clear
3:15 AM 53.6 °F 47.5 °F 80% 30.06 in 10.0 mi Calm Calm - N/A   Clear
3:35 AM 53.6 °F 48.4 °F 82% 30.06 in 10.0 mi Calm Calm - N/A   Clear
3:55 AM 54.0 °F 48.6 °F 82% 30.06 in 10.0 mi Calm Calm - N/A   Clear
4:15 AM 53.6 °F 48.0 °F 81% 30.06 in 10.0 mi Calm Calm - N/A   Clear
4:35 AM 54.1 °F 48.4 °F 81% 30.06 in 10.0 mi Calm Calm - N/A   Clear
4:55 AM 54.5 °F 49.3 °F 83% 30.05 in 10.0 mi Calm Calm - N/A   Clear
5:15 AM 55.0 °F 49.1 °F 80% 30.06 in 10.0 mi Calm Calm - N/A   Clear
5:35 AM 55.2 °F 49.3 °F 80% 30.06 in 10.0 mi Calm Calm - N/A   Clear
5:55 AM 55.0 °F 49.1 °F 80% 30.06 in 10.0 mi Calm Calm - N/A   Clear
6:15 AM 54.9 °F 49.6 °F 83% 30.06 in 10.0 mi Calm Calm - N/A   Scattered Clouds
6:35 AM 54.9 °F 48.9 °F 80% 30.06 in 10.0 mi Calm Calm - N/A   Clear
7:15 AM 56.1 °F 50.9 °F 83% 30.07 in 10.0 mi Calm Calm - N/A   Clear
7:35 AM 57.9 °F 50.4 °F 76% 30.07 in 10.0 mi Calm Calm - N/A   Clear
7:55 AM 59.5 °F 50.2 °F 71% 30.06 in 10.0 mi Calm Calm - N/A   Clear
8:15 AM 61.2 °F 50.5 °F 68% 30.06 in 10.0 mi Calm Calm - N/A   Clear
8:35 AM 62.2 °F 49.8 °F 64% 30.06 in 10.0 mi Calm Calm - N/A   Clear
8:55 AM 66.6 °F 49.6 °F 54% 30.06 in 10.0 mi Calm Calm - N/A   Scattered Clouds
9:15 AM 68.5 °F 49.1 °F 50% 30.05 in 10.0 mi SSW 4.6 mph - N/A   Mostly Cloudy
9:35 AM 70.0 °F 47.7 °F 45% 30.05 in 10.0 mi SSW 8.1 mph - N/A   Scattered Clouds
9:55 AM 70.7 °F 46.8 °F 42% 30.05 in 10.0 mi WSW 8.1 mph - N/A   Clear
10:15 AM 70.9 °F 46.9 °F 42% 30.05 in 10.0 mi SW 5.8 mph - N/A   Clear
10:35 AM 72.0 °F 46.6 °F 40% 30.04 in 10.0 mi WSW 6.9 mph - N/A   Clear
10:55 AM 72.7 °F 46.4 °F 39% 30.04 in 10.0 mi WSW 5.8 mph - N/A   Scattered Clouds
11:15 AM 73.2 °F 46.6 °F 39% 30.04 in 10.0 mi WSW 8.1 mph - N/A   Scattered Clouds
11:35 AM 73.0 °F 46.9 °F 39% 30.04 in 10.0 mi WSW 5.8 mph - N/A   Mostly Cloudy
11:55 AM 75.0 °F 46.6 °F 36% 30.03 in 10.0 mi SW 8.1 mph - N/A   Scattered Clouds
12:15 PM 75.2 °F 45.1 °F 34% 30.03 in 10.0 mi WSW 9.2 mph - N/A   Clear
12:35 PM 74.3 °F 45.3 °F 36% 30.02 in 10.0 mi WSW 9.2 mph 17.3 mph N/A   Clear
12:55 PM 73.8 °F 46.6 °F 38% 30.01 in 10.0 mi WSW 8.1 mph - N/A   Clear
1:15 PM 72.7 °F 46.0 °F 39% 30.01 in 10.0 mi WSW 10.4 mph - N/A   Scattered Clouds
1:35 PM 71.6 °F 46.4 °F 41% 30.01 in 10.0 mi WSW 8.1 mph - N/A   Overcast
1:55 PM 69.6 °F 50.5 °F 51% 30.01 in 10.0 mi West 10.4 mph - N/A Rain Rain
2:15 PM 67.5 °F 53.8 °F 61% 30.00 in 10.0 mi WSW 8.1 mph - N/A Rain Light Rain
2:35 PM 67.1 °F 53.1 °F 61% 30.00 in 10.0 mi WSW 8.1 mph - N/A Rain Light Rain
2:55 PM 66.9 °F 53.1 °F 61% 30.00 in 10.0 mi WSW 5.8 mph - N/A   Light Drizzle
3:15 PM 67.6 °F 53.4 °F 60% 29.99 in 10.0 mi WSW 4.6 mph - N/A   Light Drizzle
3:35 PM 68.0 °F 53.4 °F 60% 29.98 in 10.0 mi SW 5.8 mph - N/A   Overcast
3:55 PM 68.9 °F 52.3 °F 55% 29.96 in 10.0 mi SSW 4.6 mph - N/A   Overcast
4:15 PM 69.8 °F 52.2 °F 53% 29.95 in 10.0 mi SW 5.8 mph - N/A   Overcast
4:35 PM 69.8 °F 51.4 °F 52% 29.94 in 10.0 mi South 5.8 mph - N/A   Overcast
4:55 PM 69.8 °F 51.1 °F 51% 29.94 in 10.0 mi South 3.5 mph - N/A   Overcast
5:15 PM 70.7 °F 51.6 °F 51% 29.94 in 10.0 mi SSW 4.6 mph - N/A   Overcast
5:35 PM 70.7 °F 52.2 °F 52% 29.93 in 10.0 mi SW 5.8 mph - N/A   Overcast
5:55 PM 70.9 °F 52.2 °F 51% 29.92 in 10.0 mi South 4.6 mph - N/A   Overcast
6:15 PM 70.2 °F 52.2 °F 53% 29.91 in 10.0 mi South 6.9 mph - N/A   Mostly Cloudy
6:35 PM 69.8 °F 52.2 °F 53% 29.91 in 10.0 mi Calm Calm - N/A   Mostly Cloudy
6:55 PM 69.4 °F 53.4 °F 57% 29.91 in 10.0 mi Calm Calm - N/A   Overcast
7:15 PM 68.5 °F 53.2 °F 58% 29.91 in 10.0 mi Calm Calm - N/A   Overcast
7:35 PM 67.6 °F 54.3 °F 62% 29.91 in 10.0 mi Calm Calm - N/A   Overcast
7:55 PM 66.9 °F 54.1 °F 63% 29.91 in 10.0 mi Calm Calm - N/A   Mostly Cloudy
8:15 PM 67.1 °F 54.0 °F 63% 29.91 in 10.0 mi Calm Calm - N/A   Overcast
8:35 PM 66.2 °F 54.5 °F 66% 29.91 in 10.0 mi Calm Calm - N/A   Overcast
8:55 PM 66.2 °F 54.7 °F 66% 29.91 in 10.0 mi Calm Calm - N/A   Mostly Cloudy
9:15 PM 64.8 °F 55.6 °F 72% 29.91 in 7.0 mi Calm Calm - N/A   Mostly Cloudy
9:35 PM 64.4 °F 55.4 °F 73% 29.91 in 10.0 mi Calm Calm - N/A   Mostly Cloudy
9:55 PM 64.2 °F 56.1 °F 75% 29.91 in 10.0 mi Calm Calm - N/A   Overcast
10:15 PM 63.5 °F 56.7 °F 78% 29.91 in 10.0 mi Calm Calm - N/A   Overcast
10:35 PM 65.5 °F 55.0 °F 69% 29.91 in 10.0 mi WSW 3.5 mph - N/A Rain Light Rain
10:55 PM 65.8 °F 55.4 °F 69% 29.91 in 10.0 mi Calm Calm - N/A   Light Drizzle
11:15 PM 65.7 °F 55.9 °F 71% 29.90 in 10.0 mi WSW 4.6 mph - N/A   Overcast
11:55 PM 65.7 °F 57.4 °F 75% 29.90 in 10.0 mi WSW 4.6 mph - N/A   Overcast